English version Home page |
Updated on June 14, 2015 |
プロフィール
|
軌道要素Epoch 2008 Sept. 11.0 TT = JDT 2454720.5 T 2008 Sept. 17.95636 TT MPCW q 0.0466880 (2000.0) P Q n 0.26080580 Peri. 172.42124 +0.92713614 +0.36465643 a 2.4261886 Node 165.26922 -0.35914389 +0.93041537 e 0.9807567 Incl. 19.83515 -0.10693106 +0.03678222 P 3.78 From 90 observations 1997 May 1-2012 June 30. Nongravitational parameters A1 = +0.00, A2 = -0.0002.
|
光度変化m1 = 20 + 5 logΔ + 10 log r
|
軌道要素はM.P.E.C. 2015-K01に掲載されたものです。
|